Weather History for Huntington, WV

Change the Weather History Date:

Monday, April 29, 2013

  Actual Average Record
Temperature  
Mean Temperature 59 °F 60 °F  
Max Temperature 65 °F 72 °F 91 °F (1914)
Min Temperature 53 °F 48 °F 31 °F (1967)
Degree Days  
Heating Degree Days 6 6  
Month to date heating degree days 255 285  
Since 1 July heating degree days 4431 4382  
Cooling Degree Days 0 1  
Month to date cooling degree days 43 28  
Year to date cooling degree days 43 33  
Growing Degree Days 10 (Base 50)    
Moisture  
Dew Point 54 °F    
Average Humidity 84    
Maximum Humidity 100    
Minimum Humidity 67    
Precipitation  
Precipitation 0.02 in 0.12 in 2.41 in (2014)
Month to date precipitation 2.43 3.32  
Year to date precipitation 12.00 13.26  
Snow  
Snow 0.00 in - - ()
Month to date snowfall 0.0  
Since 1 September snowfall 12.4  
Snow Depth 0.00 in    
Sea Level Pressure  
Sea Level Pressure 29.97 in    
Wind  
Wind Speed 3 mph (SSW)    
Max Wind Speed 9 mph    
Max Gust Speed 12 mph    
Visibility 8 miles    
Events Rain    
T = Trace of Precipitation, MM = Missing Value Source: NWS Daily Summary

Daily Weather History Graph

Daily Weather History Graph

Search for Another Location

Airport:

Trip Planner

Search our weather history database for the weather conditions in past years. The results will help you decide how hot, cold, wet, or windy it might be!

Date:

Astronomy

Apr. 29, 2013 Rise Set
Actual Time 6:35 AM EDT 8:20 PM EDT
Civil Twilight 6:07 AM EDT 8:48 PM EDT
Nautical Twilight 5:32 AM EDT 9:22 PM EDT
Astronomical Twilight 4:56 AM EDT 9:59 PM EDT
Moon No Moon Rise 9:56 AM EDT (4/29)
Length of Visible Light 14h 41m
Length of Day
13h 44m
Waning Gibbous, 80% of the Moon is Illuminated
Apr 29
Waning Gibbous
May 2
Last Quarter
May 9
New
May 18
First Quarter
May 25
Full

Hourly Weather History & Observations

Time (EDT) Temp. Dew Point Humidity Pressure Visibility Wind Dir Wind Speed Gust Speed Precip Events Conditions
12:51 AM 60.1 °F 52.0 °F 75% 29.92 in 10.0 mi West 3.5 mph - 0.00 in   Overcast
1:51 AM 60.1 °F 52.0 °F 75% 29.93 in 10.0 mi SSW 5.8 mph - N/A   Overcast
2:28 AM 57.2 °F 55.4 °F 94% 29.94 in 7.0 mi South 3.5 mph - 0.00 in   Overcast
2:51 AM 57.9 °F 55.0 °F 90% 29.92 in 9.0 mi South 3.5 mph - 0.00 in   Overcast
3:23 AM 57.2 °F 55.4 °F 94% 29.94 in 3.0 mi Calm Calm - 0.00 in Rain Light Rain
3:51 AM 57.0 °F 55.0 °F 93% 29.93 in 10.0 mi South 6.9 mph - 0.01 in   Overcast
3:59 AM 57.2 °F 55.4 °F 94% 29.94 in 4.0 mi South 6.9 mph - 0.00 in Rain Light Rain
4:51 AM 55.9 °F 54.0 °F 93% 29.94 in 9.0 mi SSW 4.6 mph - 0.01 in Rain Light Rain
5:05 AM 55.4 °F 55.4 °F 100% 29.95 in 10.0 mi SSW 5.8 mph - 0.00 in   Overcast
5:51 AM 55.9 °F 55.0 °F 97% 29.95 in 9.0 mi SSW 3.5 mph - 0.00 in   Overcast
6:08 AM 55.4 °F 55.4 °F 100% 29.96 in 10.0 mi SSW 3.5 mph - N/A   Overcast
6:40 AM 55.4 °F 55.4 °F 100% 29.97 in 8.0 mi SSW 4.6 mph - N/A   Overcast
6:51 AM 55.9 °F 55.0 °F 97% 29.96 in 7.0 mi SW 3.5 mph - N/A   Overcast
6:58 AM 55.4 °F 55.4 °F 100% 29.98 in 6.0 mi SW 3.5 mph - N/A   Overcast
7:05 AM 55.4 °F 53.6 °F 94% 29.98 in 6.0 mi WSW 4.6 mph - N/A   Overcast
7:51 AM 57.0 °F 55.0 °F 93% 29.98 in 4.0 mi SSW 3.5 mph - N/A   Overcast
7:55 AM 57.2 °F 55.4 °F 94% 29.99 in 5.0 mi SSW 3.5 mph - N/A   Overcast
8:48 AM 57.2 °F 55.4 °F 94% 30.00 in 6.0 mi Calm Calm - N/A   Overcast
8:51 AM 57.9 °F 55.0 °F 90% 29.99 in 6.0 mi SSW 3.5 mph - N/A   Overcast
9:32 AM 59.0 °F 55.4 °F 88% 30.00 in 8.0 mi Calm Calm - N/A   Overcast
9:51 AM 60.1 °F 55.0 °F 83% 29.99 in 10.0 mi South 4.6 mph - N/A   Mostly Cloudy
10:03 AM 60.8 °F 55.4 °F 82% 30.00 in 10.0 mi Calm Calm - N/A   Overcast
10:51 AM 61.0 °F 54.0 °F 78% 29.99 in 10.0 mi SSW 5.8 mph - N/A   Overcast
11:51 AM 64.0 °F 53.1 °F 67% 29.99 in 10.0 mi Variable 3.5 mph - N/A   Overcast
12:51 PM 64.0 °F 54.0 °F 70% 29.99 in 10.0 mi South 6.9 mph - N/A   Overcast
1:24 PM 62.6 °F 53.6 °F 72% 30.01 in 10.0 mi NNE 4.6 mph - 0.00 in Rain Light Rain
1:51 PM 61.0 °F 53.1 °F 75% 30.00 in 10.0 mi North 3.5 mph - 0.00 in   Overcast
2:51 PM 61.0 °F 55.0 °F 81% 29.99 in 10.0 mi East 3.5 mph - N/A   Overcast
3:51 PM 63.0 °F 54.0 °F 72% 29.98 in 10.0 mi ESE 5.8 mph - N/A   Overcast
4:51 PM 64.0 °F 54.0 °F 70% 29.97 in 10.0 mi Calm Calm - N/A   Overcast
5:51 PM 64.0 °F 54.0 °F 70% 29.97 in 10.0 mi Calm Calm - N/A   Overcast
6:51 PM 64.0 °F 54.0 °F 70% 29.97 in 10.0 mi Calm Calm - N/A   Overcast
7:51 PM 63.0 °F 54.0 °F 72% 29.97 in 7.0 mi Calm Calm - N/A   Overcast
8:51 PM 61.0 °F 54.0 °F 78% 29.98 in 10.0 mi East 3.5 mph - N/A   Overcast
9:51 PM 60.1 °F 55.9 °F 86% 29.99 in 10.0 mi Calm Calm - N/A   Overcast
10:51 PM 57.0 °F 55.0 °F 93% 30.01 in 9.0 mi Calm Calm - N/A   Partly Cloudy
11:51 PM 55.0 °F 54.0 °F 96% 30.00 in 4.0 mi East 3.5 mph - N/A   Clear